Regional Weather Roundup
Issued by NWS

Home | Current Version | Previous Version | Text Only | Print | Product List | Glossary On
Versions: 1 2 3 4 5 6 7 8 9 10 11 12 13 14 15 16 17 18 19 20 21 22 23 24 25 26 27 28 29 30 31 32 33 34 35 36 37 38 39 40 41 42 43 44 45 46 47 48 49 50
000
ASUS45 KPSR 261410
RWRAZ

ARIZONA HOURLY REGIONAL WEATHER ROUNDUP
NATIONAL WEATHER SERVICE PHOENIX AZ
700 AM MST TUE JUL 26 2016

NOTE: FAIR INDICATES FEW OR NO CLOUDS BELOW 12,000 FEET WITH NO
SIGNIFICANT WEATHER AND/OR OBSTRUCTIONS TO VISIBILITY.

AZZ001>003-036-261500-
NORTHWEST ARIZONA

CITY           SKY/WX    TMP DP  RH WIND       PRES   REMARKS
BULLHEAD CITY  SUNNY     91  55  29 CALM      29.83R
KINGMAN        MOSUNNY   85  48  27 SE3       30.06R
$$

AZZ004>008-015-016-018-261500-
NORTH CENTRAL ARIZONA

CITY           SKY/WX    TMP DP  RH WIND       PRES   REMARKS
GRAND CANYON   CLOUDY    68  46  45 NE7       30.33R
WILLIAMS       CLOUDY    63  54  72 SE6       30.40R
PRESCOTT       MOSUNNY   68  57  68 S6        30.19R
FLAGSTAFF      CLOUDY    58  57  97 CALM      30.36R
PAYSON         MOSUNNY   77  52  41 VRB3      30.23R
PAGE           MOSUNNY   82  46  28 CALM      30.13R
$$

AZZ009>014-017-261500-
NORTHEAST ARIZONA

CITY           SKY/WX    TMP DP  RH WIND       PRES   REMARKS
WINSLOW        CLOUDY    71  52  50 SE5       30.22R
SAINT JOHNS    MOSUNNY   69  54  58 E3        30.26R
WINDOW ROCK    CLOUDY    67  56  67 CALM      30.35S
SHOW LOW       SUNNY     66  50  55 CALM      30.32S
$$

AZZ023-261500-
GREATER PHOENIX AREA

CITY           SKY/WX    TMP DP  RH WIND       PRES   REMARKS
PHOENIX        MOSUNNY   92  58  31 SW5       29.86R
BUCKEYE        MOSUNNY   90  57  33 CALM      29.88R
GLENDALE       PTSUNNY   90  59  35 CALM      29.89R
LUKE AFB       SUNNY     89  60  38 NE5       29.86F
DEER VALLEY    MOSUNNY   90  54  29 CALM      29.89R
SCOTTSDALE     MOSUNNY   90  56  31 CALM      29.91R
MESA-FALCON    MOSUNNY  N/A N/A N/A N9        29.87R
MESA-GATEWAY   MOSUNNY   88  59  37 CALM      29.90R
CHANDLER       MOSUNNY   90  59  35 VRB6      29.88R
$$

AZZ027-028-261500-
SOUTHWEST MARICOPA COUNTY AND PINAL COUNTY

CITY           SKY/WX    TMP DP  RH WIND       PRES   REMARKS
CASA GRANDE    SUNNY     88  57  35 CALM      29.92R
GILA BEND      SUNNY     92  61  34 SE9       29.85R
$$

AZZ503-504-507>509-261500-
SOUTHEAST ARIZONA

CITY           SKY/WX    TMP DP  RH WIND       PRES   REMARKS
TUCSON         SUNNY     84  58  40 S5        30.02R
DAVIS-MONTHAN  MOSUNNY   83  59  43 SW6       30.01R
RYAN FIELD     SUNNY    N/A N/A N/A W5        30.01R
NOGALES        PTSUNNY   77  65  66 S7        30.13R
SIERRA VISTA   PTSUNNY   76  58  54 E9        30.17R
DOUGLAS        CLOUDY    74  65  73 SE12      30.16R
SAFFORD        PTSUNNY   82  60  47 SE13      30.04R
$$

AZZ020-021-025-026-031-261500-
SOUTHWEST ARIZONA

CITY           SKY/WX    TMP DP  RH WIND       PRES   REMARKS
YUMA           MOSUNNY   86  71  60 CALM      29.82R
$$

CAZ031-033-041-043-047-048-061-261500-
SOUTHERN CALIFORNIA

CITY           SKY/WX    TMP DP  RH WIND       PRES   REMARKS
DOWNTOWN L.A.  SUNNY     69  65  86 W3        29.89S
L.A. AIRPORT   PTSUNNY   66  64  94 W6        29.89F FOG
SAN DIEGO      PTSUNNY   68  67  96 NE3       29.91R
BURBANK        SUNNY     74  53  48 W3        29.90S
ONTARIO        MOSUNNY   74  60  61 CALM      29.92R
RIVERSIDE      SUNNY     74  59  59 CALM      29.92R
PALM SPRINGS   SUNNY     91  49  23 W5        29.81S
EL CENTRO NAS  MOSUNNY   89  64  43 SE10      29.80R
IMPERIAL       SUNNY     91  66  43 SE12      29.78R
BLYTHE         MOSUNNY   92  65  40 N3        29.81R
NEEDLES        SUNNY     96  58  27 N3        29.84R
$$

NVZ020-UTZ003-261500-
SOUTHERN NEVADA-UTAH

CITY           SKY/WX    TMP DP  RH WIND       PRES   REMARKS
LAS VEGAS      MOSUNNY   89  53  29 W7        29.89R
SALT LAKE CITY MOSUNNY   82  41  23 N5        30.06R
$$

NMZ009-TXZ055-261500-
NEW MEXICO-WEST TEXAS

CITY           SKY/WX    TMP DP  RH WIND       PRES   REMARKS
ALBUQUERQUE    PTSUNNY   71  59  65 N6        30.28S
EL PASO        MOSUNNY   77  60  55 N16       30.15R
$$


........................KEY........................
SKY/WX - SKY CONDITION/WEATHER
TMP    - TEMPERATURE IN FAHRENHEIT
DP     - DEW POINT IN FAHRENHEIT
RH     - RELATIVE HUMIDITY IN PERCENT
WIND   - DIRECTION AND SPEED IN MILES PER HOUR (MPH)
VRB    - VARIABLE WIND DIRECTION
PRES   - MEAN SEA LEVEL PRESSURE IN INCHES OF MERCURY
         F - FALLING PRESSURE   R - RISING PRESSURE
         S - STEADY PRESSURE
VSB    - VISIBILITY IN MILES
HX     - HEAT INDEX IN FAHRENHEIT
WCI    - WIND CHILL INDEX IN FAHRENHEIT
TC     - TEMPERATURE IN CELSIUS WHICH IS ALSO KNOWN AS
         TEMPERATURE IN CENTIGRADE
AFB    - AIR FORCE BASE
         LUKE AFB IS LUKE AIR FORCE BASE
         DAVIS-MONTHAN IS DAVIS-MONTHAN AIR FORCE BASE
NAS    - NAVAL AIR STATION
         EL CENTRO NAS IS EL CENTRO NAVAL AIR STATION
N/A    - NOT AVAILABLE




USA.gov is the U.S. government's official web portal to all federal, state and local government web resources and services.